עמוד ראשי
METAR-TAF:

METAR-TAF

שדות תעופה :

Retalhuleu, גואטמלה

קו רוחב: 14-32N, קו אורך: 091-40W, גובה: 239מטר

תצפית מזג אוויר נוכחית

הדו"ח נערך לפני 6 שעות ו 54דקות, בשעה 00:00 UTC
רוח רגועה
טמפרטורת 30 צלסיוס
לחות 79%
לחץ 1012 hPa
ראות: 8000מטר
מעונן בגובה 20000רגל
אובך,

METAR: MGRT 270000Z 00000KT 8000 OVC200 30/26 Q1012 A2988 HZ VOLC STA MARIA Y SATGO EN ACTV.

זמן: 00:54 (06:54 UTC)


TAF: חסר

תצפיות ותחזיות מזג אוויר לגבי יותר מ- 4,000 שדות תעופה ברחבי העולם. דוחות METAR ו- TAF.

התחנות הזמינות מסומנות בנקודות צהובות ואדומות על גבי המפה.

העבר את העכבר לנקודה הצבעונית על מנת לראות את שם התחנה.

לאחר מכן, לחץ כדי לראות את תוכן ואת תחזיות מזג האוויר.

כדי לשנות את המפה: לחץ על הכפתורים הירוקים עם הפלוס השחור כדי להתקרב; על הכפתור הירוק עם המקף כדי להתרחק; או בחיצים הירוקים למפות סמוכות.


METAR-TAF: